FW9020 Weather Reports


time (UTC)temp
F
wind
direction
speed
knots
gust
knots
rain 1hr
in
rain 24hr
in
rain mn
in
humidity
%
barometer
mb
20260509211403 63 155 2.6 4.3 0.00 0.00 0.00 74 1001.7
20260509210900 63 228 2.6 2.6 0.00 0.00 0.00 75 1001.7
20260509210357 62 202 1.7 2.6 0.00 0.00 0.00 75 1002.0
20260509205852 63 191 2.6 2.6 0.00 0.00 0.00 74 1002.0
20260509205346 63 193 0.9 1.7 0.00 0.00 0.00 75 1002.0
20260509204844 63 173 0.9 2.6 0.00 0.00 0.00 75 1002.4
20260509204339 63 230 1.7 1.7 0.00 0.00 0.00 76 1002.4
20260509203836 63 242 3.5 5.2 0.00 0.00 0.00 75 1002.4
20260509203333 63 251 0.0 0.9 0.00 0.00 0.00 76 1002.7
20260509202829 63 230 2.6 4.3 0.00 0.00 0.00 75 1002.4
20260509202326 63 237 0.9 1.7 0.00 0.00 0.00 75 1002.4
20260509201825 63 239 1.7 1.7 0.00 0.00 0.00 74 1002.4
20260509201322 63 235 2.6 2.6 0.00 0.00 0.00 75 1002.7
20260509200818 64 286 6.1 7.0 0.00 0.00 0.00 72 1002.7
20260509200314 64 228 0.9 0.9 0.00 0.00 0.00 72 1002.7
20260509195811 64 227 1.7 1.7 0.00 0.00 0.00 71 1002.4
20260509195311 64 238 1.7 2.6 0.00 0.00 0.00 72 1002.4
20260509194811 65 222 2.6 2.6 0.00 0.00 0.00 71 1002.7
20260509194307 66 226 4.3 5.2 0.00 0.00 0.00 70 1002.4
20260509193804 66 269 6.1 7.0 0.00 0.00 0.00 69 1002.7
20260509193304 65 248 5.2 7.0 0.00 0.00 0.00 70 1002.7
20260509192800 65 331 2.6 2.6 0.00 0.00 0.00 70 1002.7
20260509192256 65 232 1.7 2.6 0.00 0.00 0.00 69 1002.7
20260509191750 64 255 3.5 4.3 0.00 0.00 0.00 70 1003.1
20260509190928 64 176 4.3 7.0 0.00 0.00 0.00 70 1003.4
20260509190426 64 176 4.3 7.0 0.00 0.00 0.00 70 1003.4
20260509185923 64 166 4.3 7.8 0.00 0.00 0.00 71 1003.1
20260509185421 64 239 3.5 4.3 0.00 0.00 0.00 69 1003.1
20260509184917 64 168 3.5 5.2 0.00 0.00 0.00 70 1003.1
20260509184414 65 169 4.3 6.1 0.00 0.00 0.00 69 1003.1
20260509183911 66 195 2.6 2.6 0.00 0.00 0.00 70 1003.4
20260509183405 65 266 7.8 11.3 0.00 0.00 0.00 70 1003.4
20260509182902 65 226 3.5 5.2 0.00 0.00 0.00 69 1003.4
20260509182359 66 201 5.2 7.0 0.00 0.00 0.00 69 1003.4
20260509181856 65 251 6.1 7.0 0.00 0.00 0.00 71 1003.4
20260509181353 65 222 7.0 8.7 0.00 0.00 0.00 73 1003.4
20260509180851 65 202 2.6 4.3 0.00 0.00 0.00 74 1003.7
20260509180346 64 236 3.5 6.1 0.00 0.00 0.00 73 1003.7
20260509175843 64 187 0.0 0.9 0.00 0.00 0.00 73 1003.7
20260509175340 64 239 3.5 5.2 0.00 0.00 0.00 74 1003.7
20260509174836 64 157 11.3 14.8 0.00 0.00 0.00 71 1003.7
20260509174332 65 232 1.7 2.6 0.00 0.00 0.00 73 1003.7
20260509173827 65 241 6.1 6.1 0.00 0.00 0.00 71 1004.1
20260509173323 64 243 1.7 1.7 0.00 0.00 0.00 73 1004.1
20260509172820 64 211 3.5 4.3 0.00 0.00 0.00 73 1004.1
20260509172316 63 189 3.5 4.3 0.00 0.00 0.00 73 1004.1
20260509171812 64 165 5.2 7.0 0.00 0.00 0.00 74 1004.4
20260509171308 63 233 1.7 1.7 0.00 0.00 0.00 74 1004.4
20260509170805 64 233 1.7 1.7 0.00 0.00 0.00 73 1004.4
20260509170301 64 144 6.1 7.8 0.00 0.00 0.00 70 1004.4
20260509165800 64 150 3.5 4.3 0.00 0.00 0.00 71 1004.4
20260509165255 64 196 3.5 4.3 0.00 0.00 0.00 72 1004.1
20260509164751 64 158 3.5 4.3 0.00 0.00 0.00 72 1004.4
20260509164248 64 261 3.5 4.3 0.00 0.00 0.00 72 1004.4
20260509163745 64 135 2.6 5.2 0.00 0.00 0.00 72 1004.4
20260509163241 62 196 2.6 2.6 0.00 0.00 0.00 76 1004.4
20260509162740 62 255 6.1 7.0 0.00 0.00 0.00 75 1004.4
20260509162233 64 262 3.5 5.2 0.00 0.00 0.00 73 1004.8
20260509161729 64 239 1.7 2.6 0.00 0.00 0.00 73 1004.8
20260509161226 64 147 4.3 6.1 0.00 0.00 0.00 72 1004.8
20260509160721 63 183 2.6 2.6 0.00 0.00 0.00 74 1005.1
20260509160218 63 220 3.5 4.3 0.00 0.00 0.00 75 1004.8
20260509155713 63 186 3.5 7.0 0.00 0.00 0.00 75 1004.8
20260509155210 64 210 3.5 4.3 0.00 0.00 0.00 73 1004.8
20260509154706 63 173 1.7 2.6 0.00 0.00 0.00 75 1004.8
20260509154203 62 199 4.3 5.2 0.00 0.00 0.00 76 1004.8
20260509153700 61 230 0.0 0.9 0.00 0.00 0.00 79 1004.8
20260509153156 61 169 4.3 7.0 0.00 0.00 0.00 79 1005.1
20260509152652 61 183 4.3 5.2 0.00 0.00 0.00 78 1005.1
20260509152149 62 174 2.6 4.3 0.00 0.00 0.00 77 1005.1
20260509151646 61 213 1.7 1.7 0.00 0.00 0.00 76 1005.1
20260509151143 60 187 2.6 4.3 0.00 0.00 0.00 79 1004.8
20260509150641 61 267 3.5 4.3 0.00 0.00 0.00 78 1005.4
20260509150139 61 243 0.9 1.7 0.00 0.00 0.00 79 1005.1
20260509145635 60 277 3.5 4.3 0.00 0.00 0.00 78 1005.4
20260509145130 60 188 4.3 5.2 0.00 0.00 0.00 80 1005.4
20260509144627 60 28 2.6 2.6 0.00 0.00 0.00 80 1005.4
20260509144124 59 224 0.9 0.9 0.00 0.00 0.00 81 1005.4
20260509143621 59 170 3.5 4.3 0.00 0.00 0.00 82 1005.4
20260509143119 59 169 2.6 4.3 0.00 0.00 0.00 82 1005.4
20260509142614 59 208 3.5 4.3 0.00 0.00 0.00 84 1005.1
20260509142111 59 228 2.6 2.6 0.00 0.00 0.00 83 1005.4
20260509141607 59 182 5.2 6.1 0.00 0.00 0.00 82 1005.4
20260509141103 59 235 1.7 1.7 0.00 0.00 0.00 83 1005.4
20260509140600 59 263 4.3 5.2 0.00 0.00 0.00 84 1005.4
20260509140058 59 177 3.5 5.2 0.00 0.00 0.00 84 1005.4
20260509135555 59 197 2.6 2.6 0.00 0.00 0.00 84 1005.4
20260509135053 59 235 1.7 1.7 0.00 0.00 0.00 83 1005.4
20260509134549 59 230 1.7 1.7 0.00 0.00 0.00 84 1005.4
20260509134047 59 226 1.7 1.7 0.00 0.00 0.00 85 1005.8
20260509133544 58 233 1.7 2.6 0.00 0.00 0.00 86 1005.8
20260509133042 57 234 6.1 7.0 0.00 0.00 0.00 87 1005.8
20260509132540 57 224 2.6 2.6 0.00 0.00 0.00 87 1005.8
20260509132038 57 216 2.6 2.6 0.00 0.00 0.00 87 1005.8
20260509131533 56 251 0.9 1.7 0.00 0.00 0.00 88 1005.8
20260509131031 55 212 1.7 1.7 0.00 0.00 0.00 88 1005.8
20260509130526 55 193 4.3 5.2 0.00 0.00 0.00 88 1005.8
20260509130023 54 211 2.6 2.6 0.00 0.00 0.00 89 1005.8
20260509125520 54 197 2.6 2.6 0.00 0.00 0.00 89 1006.1
20260509125016 54 177 3.5 4.3 0.00 0.00 0.00 89 1005.8
20260509124513 53 193 2.6 2.6 0.00 0.00 0.00 89 1005.8
20260509124010 53 158 5.2 6.1 0.00 0.00 0.00 89 1006.1
20260509123508 53 225 1.7 2.6 0.00 0.00 0.00 90 1005.8
20260509123004 53 218 2.6 4.3 0.00 0.00 0.00 90 1005.8
20260509122500 53 181 2.6 4.3 0.00 0.00 0.00 90 1005.8
20260509121957 52 192 2.6 2.6 0.00 0.00 0.00 90 1006.1
20260509121454 52 218 1.7 1.7 0.00 0.00 0.00 90 1006.1
20260509120952 52 216 0.9 0.9 0.00 0.00 0.00 91 1006.1
20260509120450 52 194 0.9 1.7 0.00 0.00 0.00 90 1006.1
20260509115948 51 224 1.7 1.7 0.00 0.00 0.00 91 1005.8
20260509115444 51 199 1.7 1.7 0.00 0.00 0.00 91 1006.1
20260509114942 51 172 3.5 4.3 0.00 0.00 0.00 92 1005.8
20260509114440 50 197 2.6 2.6 0.00 0.00 0.00 93 1005.8
20260509113939 50 150 2.6 4.3 0.00 0.00 0.00 93 1005.8
20260509113436 49 182 2.6 2.6 0.00 0.00 0.00 93 1005.8
20260509112933 49 217 0.0 0.9 0.00 0.00 0.00 93 1005.8
20260509112430 48 213 1.7 1.7 0.00 0.00 0.00 93 1005.8
20260509111927 48 211 1.7 1.7 0.00 0.00 0.00 93 1005.8
20260509111425 47 222 0.0 0.0 0.00 0.00 0.00 94 1006.1
20260509110922 47 226 0.0 0.0 0.00 0.00 0.00 94 1006.1
20260509110417 47 214 1.7 1.7 0.00 0.00 0.00 94 1006.1
20260509105916 46 223 0.0 0.9 0.00 0.00 0.00 94 1005.8
20260509105414 46 203 0.9 1.7 0.00 0.00 0.00 94 1005.8
20260509104911 46 201 1.7 1.7 0.00 0.00 0.00 94 1006.1
20260509104408 46 196 1.7 1.7 0.00 0.00 0.00 94 1006.1
20260509103905 46 215 0.9 0.9 0.00 0.00 0.00 93 1006.1
20260509103402 45 218 0.9 0.9 0.00 0.00 0.00 93 1006.4
20260509102901 45 218 0.9 0.9 0.00 0.00 0.00 93 1006.4
20260509102358 45 219 0.9 0.9 0.00 0.00 0.00 92 1006.4
20260509101853 45 223 0.0 0.9 0.00 0.00 0.00 93 1006.4
20260509101349 45 225 0.0 0.9 0.00 0.00 0.00 92 1006.4
20260509100848 45 225 0.9 0.9 0.00 0.00 0.00 90 1006.1
20260509100344 45 224 0.0 0.0 0.00 0.00 0.00 90 1006.1
20260509095841 45 220 0.0 0.0 0.00 0.00 0.00 89 1006.1
20260509095338 45 221 0.0 0.9 0.00 0.00 0.00 89 1006.1
20260509094836 45 222 0.0 0.0 0.00 0.00 0.00 89 1006.1
20260509094332 45 223 0.0 0.9 0.00 0.00 0.00 89 1006.1
20260509093830 45 223 0.9 0.9 0.00 0.00 0.00 89 1006.1
20260509093326 44 221 0.9 0.9 0.00 0.00 0.00 88 1006.1
20260509092825 44 226 0.0 0.0 0.00 0.00 0.00 88 1006.1
20260509092323 44 226 0.0 0.0 0.00 0.00 0.00 87 1006.1
20260509091820 44 227 0.0 0.0 0.00 0.00 0.00 87 1006.4
20260509091317 45 227 0.0 0.0 0.00 0.00 0.00 86 1006.1
20260509090814 45 227 0.0 0.0 0.00 0.00 0.00 85 1006.1
20260509090312 45 225 0.0 0.9 0.00 0.00 0.00 85 1006.1
20260509085809 45 220 0.9 0.9 0.00 0.00 0.00 84 1006.4
20260509085307 45 222 0.9 0.9 0.00 0.00 0.00 85 1006.4
20260509084803 45 233 0.0 0.0 0.00 0.00 0.00 84 1006.4
20260509084300 45 235 0.0 0.0 0.00 0.00 0.00 84 1006.1
20260509083757 45 229 0.0 0.0 0.00 0.00 0.00 84 1006.4
20260509083254 45 221 0.9 0.9 0.00 0.00 0.00 84 1006.4
20260509082750 44 217 1.7 1.7 0.00 0.00 0.00 84 1006.4
20260509082247 44 215 0.9 0.9 0.00 0.00 0.00 83 1006.4
20260509081744 43 219 0.0 0.0 0.00 0.00 0.00 83 1006.4
20260509081242 43 219 0.0 0.9 0.00 0.00 0.00 82 1006.1
20260509080740 43 219 0.0 0.9 0.00 0.00 0.00 82 1006.4
20260509080237 43 222 0.0 0.9 0.00 0.00 0.00 82 1006.4
20260509075735 43 208 0.9 0.9 0.00 0.00 0.00 82 1006.4
20260509075232 43 209 0.9 0.9 0.00 0.00 0.00 82 1006.4
20260509074729 43 219 0.9 0.9 0.00 0.00 0.00 82 1006.4
20260509074227 43 215 0.9 0.9 0.00 0.00 0.00 82 1006.4
20260509073723 42 219 0.0 0.9 0.00 0.00 0.00 81 1006.4
20260509073219 42 216 0.9 0.9 0.00 0.00 0.00 82 1006.8
20260509072716 42 220 0.0 0.9 0.00 0.00 0.00 83 1006.4
20260509072213 42 218 0.9 0.9 0.00 0.00 0.00 84 1006.8
20260509071709 42 218 0.9 0.9 0.00 0.00 0.00 84 1006.4
20260509071207 42 222 0.0 0.9 0.00 0.00 0.00 84 1006.8
20260509070704 42 219 0.9 0.9 0.00 0.00 0.00 82 1006.8
20260509070200 42 224 0.0 0.0 0.00 0.00 0.00 80 1006.8
20260509065656 43 224 0.0 0.0 0.00 0.00 0.00 79 1006.8
20260509065152 43 224 0.0 0.9 0.00 0.00 0.00 79 1007.1
20260509064649 44 236 0.0 0.0 0.00 0.00 0.00 77 1006.8
20260509064147 44 231 0.0 0.0 0.00 0.00 0.00 75 1006.8
20260509063644 44 222 0.9 0.9 0.00 0.00 0.00 76 1007.1
20260509063140 44 223 0.0 0.9 0.00 0.00 0.00 76 1007.1
20260509062637 44 221 0.0 0.9 0.00 0.00 0.00 76 1007.5
20260509062134 44 215 0.9 0.9 0.00 0.00 0.00 76 1007.5
20260509061631 45 224 0.9 0.9 0.00 0.00 0.00 75 1007.5
20260509061129 45 225 0.0 0.9 0.00 0.00 0.00 74 1007.5
20260509060626 45 229 0.9 0.9 0.00 0.00 0.00 72 1007.8
20260509060122 46 205 1.7 1.7 0.00 0.00 0.00 73 1007.5
20260509055618 45 218 1.7 1.7 0.00 0.00 0.00 72 1007.8
20260509055113 45 222 0.0 0.9 0.00 0.00 0.00 73 1007.5
20260509054611 45 223 0.0 0.9 0.00 0.00 0.00 74 1007.8
20260509054108 45 227 0.9 0.9 0.00 0.00 0.00 73 1007.8
20260509053607 46 218 0.9 0.9 0.00 0.00 0.00 72 1007.8
20260509053103 46 222 0.9 0.9 0.00 0.00 0.00 70 1007.8
20260509052601 46 218 0.9 0.9 0.00 0.00 0.00 69 1007.8
20260509052059 46 228 0.0 0.0 0.00 0.00 0.00 69 1008.1
20260509051556 46 204 0.9 1.7 0.00 0.00 0.00 68 1008.1
20260509051053 47 229 0.9 1.7 0.00 0.00 0.00 68 1008.1
20260509050550 47 216 2.6 2.6 0.00 0.00 0.00 67 1008.1
20260509050046 46 188 3.5 4.3 0.00 0.00 0.00 68 1008.1
20260509045544 46 185 0.9 1.7 0.00 0.00 0.00 69 1008.1
20260509045041 47 212 2.6 2.6 0.00 0.00 0.00 67 1008.1
20260509044538 46 193 4.3 5.2 0.00 0.00 0.00 66 1008.5
20260509044036 46 182 1.7 2.6 0.00 0.00 0.00 67 1008.5
20260509043532 46 216 0.9 1.7 0.00 0.00 0.00 68 1008.5
20260509043027 45 226 0.0 0.0 0.00 0.00 0.00 67 1008.5
20260509042524 45 221 0.0 0.9 0.00 0.00 0.00 66 1008.5
20260509042020 45 210 0.0 0.9 0.00 0.00 0.00 66 1008.5
20260509041517 45 225 0.0 0.0 0.00 0.00 0.00 65 1008.5
20260509041015 45 221 0.9 0.9 0.00 0.00 0.00 64 1008.5
20260509040513 45 223 0.0 0.9 0.00 0.00 0.00 64 1008.8
20260509040009 45 211 0.0 0.9 0.00 0.04 0.04 64 1008.8
20260509035507 45 228 0.0 0.0 0.00 0.04 0.04 64 1008.8
20260509035003 45 229 0.9 0.9 0.00 0.04 0.04 64 1008.5
20260509034502 44 223 0.0 0.0 0.00 0.04 0.04 67 1008.8
20260509033958 44 221 0.0 0.0 0.00 0.04 0.04 71 1008.8
20260509033454 44 221 0.0 0.9 0.00 0.04 0.04 72 1008.8
20260509032951 44 221 0.0 0.0 0.00 0.04 0.04 73 1008.8
20260509032449 44 221 0.0 0.0 0.00 0.04 0.04 76 1008.8
20260509031946 44 221 0.0 0.0 0.00 0.04 0.04 80 1008.8
20260509031443 44 221 0.0 0.0 0.00 0.04 0.04 78 1008.8
20260509030941 44 221 0.0 0.0 0.00 0.04 0.04 78 1008.8
20260509030439 44 221 0.0 0.9 0.00 0.04 0.04 75 1009.2
20260509025935 45 221 0.9 0.9 0.00 0.04 0.04 75 1009.2
20260509025431 44 221 0.9 0.9 0.00 0.04 0.04 74 1008.8
20260509024926 45 221 0.0 0.0 0.00 0.04 0.04 75 1009.2
20260509024423 45 221 0.0 0.0 0.00 0.04 0.04 73 1009.2
20260509023920 45 221 0.0 0.0 0.00 0.04 0.04 71 1009.2
20260509023417 45 221 0.0 0.0 0.00 0.04 0.04 75 1009.2
20260509022913 45 221 0.0 0.0 0.00 0.04 0.04 72 1009.2
20260509022411 45 221 0.0 0.9 0.00 0.04 0.04 75 1009.2
20260509021908 44 221 0.0 0.0 0.00 0.04 0.04 73 1009.2
20260509021405 44 221 0.0 0.0 0.00 0.04 0.04 77 1008.8
20260509020902 44 221 0.0 0.9 0.00 0.04 0.04 82 1008.8
20260509020401 44 221 0.9 0.9 0.00 0.04 0.04 82 1009.2
20260509015857 44 221 0.0 0.0 0.00 0.04 0.04 83 1009.2
20260509015356 44 221 0.0 0.0 0.00 0.04 0.04 81 1008.8
20260509014852 44 221 0.0 0.0 0.00 0.04 0.04 82 1008.8
20260509014349 45 221 0.0 0.0 0.00 0.04 0.04 78 1008.8
20260509013845 46 221 0.0 0.0 0.00 0.04 0.04 75 1008.8
20260509013342 46 221 0.0 0.9 0.00 0.04 0.04 74 1008.8
20260509012838 46 221 0.0 0.9 0.00 0.04 0.04 75 1008.8
20260509012335 47 222 0.0 0.0 0.00 0.04 0.04 75 1009.2
20260509011832 47 221 0.0 0.0 0.00 0.04 0.04 73 1008.8
20260509011329 48 221 0.0 0.0 0.00 0.04 0.04 68 1008.8
20260509010827 48 221 0.0 0.0 0.00 0.04 0.04 66 1008.8
20260509010325 48 222 0.0 0.0 0.00 0.04 0.04 68 1008.8
20260509005821 49 222 0.0 0.0 0.00 0.04 0.04 67 1008.8
20260509005319 49 221 0.0 0.0 0.00 0.04 0.04 67 1008.8
20260509004814 49 222 0.0 0.0 0.00 0.04 0.04 64 1008.8
20260509004310 50 226 0.0 0.0 0.00 0.04 0.04 65 1008.5
20260509003808 49 232 0.0 0.0 0.00 0.04 0.04 61 1008.5
20260509003306 49 233 0.0 0.0 0.00 0.04 0.04 62 1008.8
20260509002803 50 233 0.0 0.0 0.00 0.04 0.04 61 1008.8
20260509002300 51 233 0.0 0.0 0.00 0.04 0.04 60 1008.8
20260509001758 51 234 0.0 0.9 0.00 0.04 0.04 59 1008.5
20260509001254 52 235 0.0 0.0 0.00 0.04 0.04 56 1008.5
20260509000751 54 236 0.0 0.9 0.00 0.04 0.04 54 1008.5
20260509000248 55 232 0.0 0.0 0.00 0.04 0.04 53 1008.5
20260508235745 56 235 0.0 0.0 0.00 0.04 0.04 53 1008.5
20260508235242 56 236 0.0 0.9 0.00 0.04 0.04 50 1008.5
20260508234739 56 231 0.9 0.9 0.00 0.04 0.04 49 1008.5
20260508234235 57 206 1.7 2.6 0.00 0.04 0.04 49 1008.5
20260508233729 57 234 0.0 0.0 0.00 0.04 0.04 49 1008.5
20260508233227 57 241 2.6 2.6 0.00 0.04 0.04 50 1008.5
20260508232724 57 208 0.9 1.7 0.00 0.04 0.04 49 1008.5
20260508232220 57 247 0.9 0.9 0.00 0.04 0.04 51 1008.5
20260508231719 57 236 0.9 1.7 0.00 0.04 0.04 53 1008.5
20260508231215 57 206 1.7 2.6 0.00 0.04 0.04 49 1008.5
20260508230712 57 230 1.7 1.7 0.00 0.04 0.04 51 1008.5
20260508230208 57 217 2.6 4.3 0.00 0.04 0.04 51 1008.5
20260508225706 57 200 2.6 4.3 0.00 0.04 0.04 51 1008.5
20260508225202 57 191 2.6 2.6 0.00 0.04 0.04 51 1008.5
20260508224700 58 195 5.2 7.0 0.00 0.04 0.04 49 1008.5
20260508224157 59 240 0.9 0.9 0.00 0.04 0.04 49 1008.5
20260508223655 59 222 3.5 4.3 0.00 0.04 0.04 50 1008.5
20260508223152 59 240 0.9 0.9 0.00 0.04 0.04 50 1008.5
20260508222649 59 215 1.7 1.7 0.00 0.04 0.04 51 1008.5
20260508222147 59 185 1.7 2.6 0.00 0.04 0.04 49 1008.5
20260508221643 59 264 2.6 2.6 0.00 0.04 0.04 52 1008.5
20260508221138 59 224 0.9 0.9 0.00 0.04 0.04 51 1008.5
20260508220635 59 231 0.9 1.7 0.00 0.04 0.04 55 1008.8
20260508220132 58 228 0.9 0.9 0.00 0.04 0.04 55 1008.5
20260508215628 57 235 0.9 0.9 0.00 0.04 0.04 55 1008.5
20260508215125 57 191 2.6 4.3 0.00 0.04 0.04 56 1008.8
20260508214622 57 216 2.6 4.3 0.00 0.04 0.04 55 1008.5
20260508214119 57 198 2.6 4.3 0.00 0.04 0.04 55 1008.5
20260508213616 57 220 3.5 5.2 0.00 0.04 0.04 59 1008.5
20260508213112 57 164 4.3 5.2 0.00 0.04 0.04 56 1008.5
20260508212609 57 222 0.9 1.7 0.00 0.04 0.04 58 1008.5
20260508212105 57 175 2.6 4.3 0.00 0.04 0.04 57 1008.5